Weather History for Raleigh-Durham Airport, NC

Change the Weather History Date:

Sunday, December 8, 2013

  Actual Average Record
Temperature  
Mean Temperature 38 °F 45 °F  
Max Temperature 42 °F 56 °F 78 °F (1978)
Min Temperature 33 °F 35 °F 13 °F (1977)
Degree Days  
Heating Degree Days 27 20  
Month to date heating degree days 104 151  
Since 1 July heating degree days 756 732  
Cooling Degree Days 0 0  
Month to date cooling degree days 7 0  
Year to date cooling degree days 1559 1728  
Moisture  
Dew Point 31 °F    
Average Humidity 79    
Maximum Humidity 100    
Minimum Humidity 57    
Precipitation  
Precipitation 0.05 in 0.10 in 2.07 in (1920)
Month to date precipitation 0.19 0.81  
Year to date precipitation 44.97 41.08  
Snow  
Snow 0.00 in 0.10 in 0.80 in (1989)
Month to date snowfall 0.0 0.1  
Since 1 July snowfall T 0.2  
Snow Depth 0.00 in    
Sea Level Pressure  
Sea Level Pressure 30.40 in    
Wind  
Wind Speed 8 mph (NE)    
Max Wind Speed 17 mph    
Max Gust Speed 22 mph    
Visibility 5 miles    
Events Rain    
T = Trace of Precipitation, MM = Missing Value Source: NWS Daily Summary

Daily Weather History Graph

Daily Weather History Graph

Search for Another Location

Airport:

Trip Planner

Search our weather history database for the weather conditions in past years. The results will help you decide how hot, cold, wet, or windy it might be!

Date:

Astronomy

Dec. 08, 2013 Rise Set
Actual Time 7:13 AM EST 5:01 PM EST
Civil Twilight 6:44 AM EST 5:29 PM EST
Nautical Twilight 6:12 AM EST 6:01 PM EST
Astronomical Twilight 5:41 AM EST 6:32 PM EST
Moon 11:41 AM EST (12/8) 11:38 PM EST (12/8)
Length of Visible Light 10h 44m
Length of Day
9h 48m
Waxing Crescent, 40% of the Moon is Illuminated
Dec 8
Waxing Crescent
Dec 9
First Quarter
Dec 17
Full
Dec 25
Last Quarter
Jan 1
New

Hourly Weather History & Observations

Time (EST) Temp. Windchill Dew Point Humidity Pressure Visibility Wind Dir Wind Speed Gust Speed Precip Events Conditions
12:51 AM 42.1 °F 36.1 °F 28.9 °F 60% 30.44 in 10.0 mi NE 10.4 mph - N/A   Overcast
1:51 AM 41.0 °F 34.3 °F 28.0 °F 60% 30.44 in 10.0 mi NE 11.5 mph - N/A   Overcast
2:51 AM 39.9 °F 33.9 °F 28.0 °F 63% 30.44 in 10.0 mi NNE 9.2 mph - N/A   Overcast
3:51 AM 39.0 °F 33.4 °F 27.0 °F 62% 30.42 in 10.0 mi NE 8.1 mph - N/A   Overcast
4:51 AM 37.9 °F 28.9 °F 26.1 °F 62% 30.43 in 10.0 mi NE 16.1 mph - N/A   Overcast
5:51 AM 37.9 °F 29.6 °F 27.0 °F 65% 30.43 in 10.0 mi ENE 13.8 mph - N/A   Overcast
6:24 AM 37.4 °F 28.9 °F 26.6 °F 65% 30.44 in 10.0 mi NE 13.8 mph 21.9 mph N/A   Overcast
6:51 AM 36.0 °F 28.0 °F 28.0 °F 73% 30.46 in 10.0 mi NNE 11.5 mph 18.4 mph N/A   Overcast
7:51 AM 34.0 °F 26.0 °F 30.0 °F 85% 30.47 in 5.0 mi NE 10.4 mph - 0.00 in Rain Light Rain
8:26 AM 33.8 °F 24.8 °F 30.2 °F 87% 30.45 in 2.0 mi NE 12.7 mph - 0.00 in   Light Drizzle
8:51 AM 34.0 °F 26.6 °F 30.9 °F 89% 30.45 in 2.0 mi ENE 9.2 mph 18.4 mph 0.00 in   Light Drizzle
9:51 AM 33.1 °F 25.5 °F 30.9 °F 92% 30.46 in 1.5 mi NE 9.2 mph - 0.01 in Rain Light Rain
10:31 AM 33.8 °F 26.4 °F 30.2 °F 87% 30.45 in 1.0 mi NE 9.2 mph - 0.01 in Rain Light Rain
10:51 AM 34.0 °F 26.0 °F 30.9 °F 89% 30.43 in 1.0 mi ENE 10.4 mph 17.3 mph 0.02 in Rain Light Rain
11:09 AM 33.8 °F 25.8 °F 30.2 °F 87% 30.42 in 3.0 mi NE 10.4 mph - 0.00 in   Overcast
11:51 AM 34.0 °F 25.5 °F 30.9 °F 89% 30.44 in 2.0 mi NNE 11.5 mph 16.1 mph 0.00 in   Overcast
12:51 PM 33.1 °F 24.9 °F 30.9 °F 92% 30.41 in 2.0 mi NE 10.4 mph - 0.01 in   Light Drizzle
1:51 PM 34.0 °F 26.6 °F 30.9 °F 89% 30.38 in 2.0 mi NNE 9.2 mph - 0.00 in   Light Drizzle
2:51 PM 34.0 °F 28.8 °F 32.0 °F 92% 30.39 in 2.0 mi NNE 5.8 mph - 0.01 in   Light Drizzle
3:51 PM 34.0 °F 26.6 °F 32.0 °F 92% 30.37 in 2.0 mi NE 9.2 mph - 0.00 in   Light Drizzle
4:28 PM 33.8 °F 27.0 °F 32.0 °F 93% 30.36 in 8.0 mi NNE 8.1 mph - 0.00 in   Overcast
4:51 PM 34.0 °F 26.6 °F 32.0 °F 92% 30.36 in 9.0 mi NE 9.2 mph - 0.00 in   Overcast
5:51 PM 34.0 °F 28.8 °F 32.0 °F 92% 30.36 in 3.0 mi NNE 5.8 mph - N/A   Overcast
6:51 PM 34.0 °F 29.8 °F 32.0 °F 92% 30.35 in 3.0 mi NE 4.6 mph - N/A   Overcast
7:51 PM 34.0 °F 28.8 °F 32.0 °F 92% 30.36 in 3.0 mi NNE 5.8 mph - 0.00 in   Light Drizzle
7:58 PM 33.8 °F 28.6 °F 32.0 °F 93% 30.35 in 2.0 mi NNE 5.8 mph - 0.00 in   Light Drizzle
8:30 PM 33.8 °F 29.6 °F 32.0 °F 93% 30.34 in 2.0 mi North 4.6 mph - 0.00 in   Light Drizzle
8:51 PM 34.0 °F 31.0 °F 32.0 °F 92% 30.36 in 2.0 mi NNE 3.5 mph - 0.00 in   Light Drizzle
9:51 PM 34.0 °F 31.0 °F 32.0 °F 92% 30.32 in 2.0 mi NE 3.5 mph - 0.00 in   Light Drizzle
10:06 PM 33.8 °F 29.6 °F 33.8 °F 100% 30.33 in 1.0 mi North 4.6 mph - 0.00 in   Light Drizzle
10:24 PM 33.8 °F - 33.8 °F 100% 30.32 in 2.0 mi Calm Calm - 0.00 in   Overcast
10:51 PM 34.0 °F - 33.1 °F 96% 30.33 in 1.0 mi Calm Calm - 0.00 in   Light Drizzle
11:51 PM 34.0 °F 31.0 °F 33.1 °F 96% 30.30 in 1.0 mi NE 3.5 mph - 0.00 in   Light Drizzle